Location: Martley
(52.2333°N, 2.3667°W)
Time: 16:00:15
(UTC+00:00)

COSMO-SKYMED 1 - Pass Details

Date: 11 December 2019
Orbit: 621 x 623 km, 97.9° (Epoch: 26 January)

Event Time Altitude Azimuth Distance (km) Brightness Sun altitude
Rises 06:01:02 0° 192° (SSW) 2,895 6.0 -18.2°
Reaches altitude 10° 06:03:26 10° 203° (SSW) 1,994 5.1 -17.8°
Enters shadow 06:06:55 30° 256° (WSW) 1,138 3.4 -17.3°
